UAL493 KLAX-KDEN

Flight info

Callsign UAL493
Flight time 1h 58m
Altitude 37000
Route ORCKA5 LAS J146 DICEE BUMMP SSKII4
Aircraft A320/M-SDE3FGHIRWY/LB1

Departure

Time 2026-05-07 21:10
Airport Los Angeles International Airport (KLAX)

Arrival

Time 2026-05-07 23:09
Airport Denver International Airport (KDEN)
Time Latitude Longitude Altitude Speed Heading
2026-05-07 20:42 33.94204 -118.40029 93 ft 0 kts 70°
2026-05-07 20:53 33.94202 -118.40035 92 ft 4 kts 70°
2026-05-07 20:54 33.94195 -118.40059 93 ft 4 kts 72°
2026-05-07 20:54 33.94193 -118.40082 92 ft 4 kts 142°
2026-05-07 20:54 33.94211 -118.40093 94 ft 2 kts 173°
2026-05-07 20:54 33.94212 -118.40093 94 ft 0 kts 173°
2026-05-07 21:03 33.94205 -118.40092 93 ft 2 kts 173°
2026-05-07 21:04 33.94183 -118.40089 88 ft 4 kts 173°
2026-05-07 21:04 33.94160 -118.40086 93 ft 6 kts 173°
2026-05-07 21:04 33.94114 -118.40079 96 ft 8 kts 173°
2026-05-07 21:04 33.94054 -118.40070 93 ft 10 kts 173°
2026-05-07 21:05 33.93981 -118.40059 95 ft 11 kts 173°
2026-05-07 21:05 33.93902 -118.40034 96 ft 12 kts 144°
2026-05-07 21:05 33.93884 -118.39943 99 ft 12 kts 85°
2026-05-07 21:05 33.93894 -118.39830 97 ft 15 kts 81°
2026-05-07 21:06 33.93909 -118.39701 95 ft 17 kts 83°
2026-05-07 21:06 33.93924 -118.39556 95 ft 18 kts 82°
2026-05-07 21:06 33.93940 -118.39395 96 ft 21 kts 83°
2026-05-07 21:06 33.93959 -118.39216 93 ft 22 kts 83°
2026-05-07 21:07 33.93978 -118.39023 94 ft 24 kts 83°
2026-05-07 21:07 33.93999 -118.38819 95 ft 25 kts 83°
2026-05-07 21:07 33.94021 -118.38603 95 ft 27 kts 83°
2026-05-07 21:07 33.94043 -118.38396 97 ft 22 kts 84°
2026-05-07 21:08 33.94060 -118.38222 95 ft 18 kts 82°
2026-05-07 21:08 33.94069 -118.38134 94 ft 5 kts 83°
2026-05-07 21:08 33.94075 -118.38077 93 ft 8 kts 83°
2026-05-07 21:08 33.94062 -118.38010 94 ft 9 kts 139°
2026-05-07 21:09 33.93995 -118.38001 93 ft 11 kts 195°
2026-05-07 21:09 33.93978 -118.38070 94 ft 10 kts 265°
2026-05-07 21:09 33.93946 -118.38394 99 ft 71 kts 263°
2026-05-07 21:09 33.93861 -118.39223 94 ft 125 kts 263°
2026-05-07 21:10 33.93733 -118.40429 198 ft 157 kts 262°
2026-05-07 21:10 33.93615 -118.41737 814 ft 157 kts 262°
2026-05-07 21:10 33.93515 -118.43057 1472 ft 158 kts 263°
2026-05-07 21:10 33.93385 -118.44396 1966 ft 169 kts 263°
2026-05-07 21:11 33.93221 -118.45893 2202 ft 191 kts 262°
2026-05-07 21:11 33.93026 -118.47574 2446 ft 215 kts 262°
2026-05-07 21:11 33.92543 -118.51531 3250 ft 258 kts 262°
2026-05-07 21:12 33.92272 -118.53686 4044 ft 262 kts 262°
2026-05-07 21:12 33.91880 -118.55825 4934 ft 263 kts 248°
2026-05-07 21:12 33.90915 -118.57723 5721 ft 269 kts 236°
2026-05-07 21:12 33.89814 -118.59566 6510 ft 273 kts 236°
2026-05-07 21:13 33.88697 -118.61437 7259 ft 277 kts 235°
2026-05-07 21:13 33.87574 -118.63318 7948 ft 283 kts 235°
2026-05-07 21:13 33.86423 -118.65271 8649 ft 289 kts 238°
2026-05-07 21:13 33.85284 -118.67295 9345 ft 297 kts 227°
2026-05-07 21:14 33.83556 -118.68662 10021 ft 302 kts 198°
2026-05-07 21:14 33.81450 -118.69010 10696 ft 304 kts 173°
2026-05-07 21:14 33.79420 -118.68329 11289 ft 309 kts 150°
2026-05-07 21:14 33.77746 -118.66677 11449 ft 326 kts 124°
2026-05-07 21:15 33.76832 -118.64147 11716 ft 336 kts 96°
2026-05-07 21:15 33.76956 -118.61354 12283 ft 339 kts 72°
2026-05-07 21:15 33.78118 -118.58868 12922 ft 342 kts 46°
2026-05-07 21:15 33.79983 -118.57128 13567 ft 346 kts 35°
2026-05-07 21:16 33.81943 -118.55375 14186 ft 349 kts 39°
2026-05-07 21:16 33.83776 -118.53511 14776 ft 351 kts 42°
2026-05-07 21:16 33.85606 -118.51554 15372 ft 353 kts 43°
2026-05-07 21:16 33.87447 -118.49572 15955 ft 356 kts 42°
2026-05-07 21:17 33.89337 -118.47568 16537 ft 359 kts 41°
2026-05-07 21:17 33.91237 -118.45595 17130 ft 362 kts 41°
2026-05-07 21:17 33.93055 -118.43493 17721 ft 364 kts 50°
2026-05-07 21:17 33.94559 -118.41027 18329 ft 366 kts 56°
2026-05-07 21:18 33.96002 -118.38490 18845 ft 369 kts 56°
2026-05-07 21:18 33.97440 -118.35961 19031 ft 371 kts 55°
2026-05-07 21:18 33.98913 -118.33368 19060 ft 370 kts 55°
2026-05-07 21:18 34.00367 -118.30805 19064 ft 370 kts 55°
2026-05-07 21:19 34.01803 -118.28272 19183 ft 373 kts 55°
2026-05-07 21:19 34.03271 -118.25683 19752 ft 375 kts 55°
2026-05-07 21:19 34.04751 -118.23075 20287 ft 378 kts 55°
2026-05-07 21:19 34.06242 -118.20445 20820 ft 382 kts 55°
2026-05-07 21:20 34.07747 -118.17785 21314 ft 385 kts 55°
2026-05-07 21:20 34.09260 -118.15104 21814 ft 388 kts 55°
2026-05-07 21:20 34.10787 -118.12397 22306 ft 391 kts 55°
2026-05-07 21:20 34.12323 -118.09672 22781 ft 395 kts 55°
2026-05-07 21:21 34.13877 -118.06917 23258 ft 398 kts 55°
2026-05-07 21:21 34.15440 -118.04148 23697 ft 401 kts 54°
2026-05-07 21:21 34.17017 -118.01358 24082 ft 404 kts 54°
2026-05-07 21:21 34.18606 -117.98548 24470 ft 406 kts 54°
2026-05-07 21:22 34.20203 -117.95719 24851 ft 409 kts 54°
2026-05-07 21:22 34.21785 -117.92910 25245 ft 411 kts 54°
2026-05-07 21:22 34.23393 -117.90045 25648 ft 413 kts 54°
2026-05-07 21:22 34.25009 -117.87160 26021 ft 415 kts 54°
2026-05-07 21:23 34.26630 -117.84262 26382 ft 417 kts 54°
2026-05-07 21:23 34.28259 -117.81348 26700 ft 420 kts 54°
2026-05-07 21:23 34.29900 -117.78412 27030 ft 422 kts 54°
2026-05-07 21:23 34.31555 -117.75450 27375 ft 425 kts 54°
2026-05-07 21:24 34.33212 -117.72479 27739 ft 427 kts 54°
2026-05-07 21:24 34.34879 -117.69490 28095 ft 429 kts 54°
2026-05-07 21:24 34.36576 -117.66511 28446 ft 431 kts 53°
2026-05-07 21:24 34.38329 -117.63546 28799 ft 433 kts 52°
2026-05-07 21:25 34.40085 -117.60637 29134 ft 435 kts 52°
2026-05-07 21:25 34.41883 -117.57682 29454 ft 437 kts 52°
2026-05-07 21:25 34.43690 -117.54711 29781 ft 439 kts 52°
2026-05-07 21:25 34.45498 -117.51715 30183 ft 441 kts 52°
2026-05-07 21:26 34.47294 -117.48712 30601 ft 439 kts 52°
2026-05-07 21:26 34.49075 -117.45715 31049 ft 437 kts 52°
2026-05-07 21:26 34.50845 -117.42730 31522 ft 434 kts 53°
2026-05-07 21:26 34.52603 -117.39761 31950 ft 433 kts 53°
2026-05-07 21:27 34.54356 -117.36800 32361 ft 432 kts 53°
2026-05-07 21:27 34.56106 -117.33845 32752 ft 431 kts 53°
2026-05-07 21:27 34.57852 -117.30892 33165 ft 430 kts 53°
2026-05-07 21:27 34.59593 -117.27949 33561 ft 429 kts 53°
2026-05-07 21:28 34.61334 -117.25006 33968 ft 428 kts 53°
2026-05-07 21:28 34.63064 -117.22080 34315 ft 427 kts 53°
2026-05-07 21:28 34.64776 -117.19185 34628 ft 426 kts 53°
2026-05-07 21:28 34.66504 -117.16258 34861 ft 426 kts 53°
2026-05-07 21:29 34.68224 -117.13342 35208 ft 424 kts 53°
2026-05-07 21:29 34.69936 -117.10431 35522 ft 423 kts 53°
2026-05-07 21:29 34.71644 -117.07519 35833 ft 423 kts 53°
2026-05-07 21:29 34.73350 -117.04608 36132 ft 422 kts 53°
2026-05-07 21:30 34.75055 -117.01700 36417 ft 422 kts 53°
2026-05-07 21:30 34.76760 -116.98797 36699 ft 421 kts 53°
2026-05-07 21:30 34.78463 -116.95902 36935 ft 421 kts 53°
2026-05-07 21:30 34.80174 -116.92995 37008 ft 424 kts 53°
2026-05-07 21:31 34.83614 -116.87123 37016 ft 427 kts 53°
2026-05-07 21:31 34.87056 -116.81230 37017 ft 426 kts 53°
2026-05-07 21:32 34.90462 -116.75390 37017 ft 425 kts 53°
2026-05-07 21:32 34.94210 -116.69833 37011 ft 424 kts 46°
2026-05-07 21:33 34.98228 -116.64566 36998 ft 424 kts 46°
2026-05-07 21:33 35.02241 -116.59294 36983 ft 424 kts 46°
2026-05-07 21:34 35.06251 -116.53999 36977 ft 424 kts 46°
2026-05-07 21:34 35.10255 -116.48704 36966 ft 424 kts 46°
2026-05-07 21:35 35.14259 -116.43413 36962 ft 424 kts 46°
2026-05-07 21:35 35.18260 -116.38107 36988 ft 424 kts 46°
2026-05-07 21:36 35.22260 -116.32787 36979 ft 425 kts 46°
2026-05-07 21:36 35.26269 -116.27462 36974 ft 425 kts 46°
2026-05-07 21:37 35.30247 -116.22160 36977 ft 425 kts 46°
2026-05-07 21:37 35.34248 -116.16824 36977 ft 425 kts 46°
2026-05-07 21:38 35.38252 -116.11488 36989 ft 425 kts 46°
2026-05-07 21:38 35.42247 -116.06141 36987 ft 425 kts 46°
2026-05-07 21:39 35.46232 -116.00782 36996 ft 427 kts 46°
2026-05-07 21:39 35.50285 -115.95337 36990 ft 437 kts 46°
2026-05-07 21:40 35.54418 -115.89798 36989 ft 441 kts 46°
2026-05-07 21:40 35.58551 -115.84230 37002 ft 442 kts 46°
2026-05-07 21:41 35.62687 -115.78643 37002 ft 442 kts 46°
2026-05-07 21:41 35.66804 -115.73052 37019 ft 442 kts 47°
2026-05-07 21:42 35.70906 -115.67398 37025 ft 443 kts 47°
2026-05-07 21:42 35.75007 -115.61724 37046 ft 443 kts 47°
2026-05-07 21:43 35.79107 -115.56051 37044 ft 443 kts 47°
2026-05-07 21:43 35.83186 -115.50421 37045 ft 443 kts 47°
2026-05-07 21:44 35.87288 -115.44751 37045 ft 443 kts 47°
2026-05-07 21:44 35.91386 -115.39077 37046 ft 443 kts 47°
2026-05-07 21:45 35.95477 -115.33399 37046 ft 443 kts 47°
2026-05-07 21:45 35.99568 -115.27714 37073 ft 442 kts 47°
2026-05-07 21:46 36.03647 -115.22034 37042 ft 442 kts 47°
2026-05-07 21:46 36.07547 -115.16168 37040 ft 443 kts 56°
2026-05-07 21:47 36.10073 -115.09202 37043 ft 446 kts 67°
2026-05-07 21:47 36.12281 -115.02025 36981 ft 446 kts 67°
2026-05-07 21:48 36.14496 -114.94846 36985 ft 446 kts 66°
2026-05-07 21:48 36.16708 -114.87669 36973 ft 446 kts 66°
2026-05-07 21:49 36.18890 -114.80529 36958 ft 446 kts 67°
2026-05-07 21:49 36.21084 -114.73353 36943 ft 446 kts 66°
2026-05-07 21:50 36.23287 -114.66164 36926 ft 446 kts 66°
2026-05-07 21:50 36.25119 -114.60188 36915 ft 446 kts 66°
2026-05-07 21:51 36.27309 -114.52992 36911 ft 446 kts 67°
2026-05-07 21:51 36.29494 -114.45783 36916 ft 447 kts 67°
2026-05-07 21:52 36.31669 -114.38570 36927 ft 447 kts 67°
2026-05-07 21:52 36.33848 -114.31349 36925 ft 447 kts 67°
2026-05-07 21:53 36.36029 -114.24125 36931 ft 447 kts 67°
2026-05-07 21:53 36.38206 -114.16905 36930 ft 447 kts 67°
2026-05-07 21:54 36.40371 -114.09676 36940 ft 447 kts 67°
2026-05-07 21:54 36.42530 -114.02446 36947 ft 446 kts 67°
2026-05-07 21:55 36.44687 -113.95216 36956 ft 446 kts 67°
2026-05-07 21:55 36.46834 -113.87976 36954 ft 446 kts 67°
2026-05-07 21:56 36.48978 -113.80740 36969 ft 446 kts 67°
2026-05-07 21:56 36.51109 -113.73548 36995 ft 446 kts 67°
2026-05-07 21:57 36.53253 -113.66301 36991 ft 447 kts 67°
2026-05-07 21:57 36.55384 -113.59046 36997 ft 447 kts 67°
2026-05-07 21:58 36.57516 -113.51781 36993 ft 447 kts 67°
2026-05-07 21:58 36.59642 -113.44521 36995 ft 447 kts 67°
2026-05-07 21:59 36.61760 -113.37248 36999 ft 447 kts 67°
2026-05-07 21:59 36.63878 -113.29965 37001 ft 447 kts 67°
2026-05-07 22:00 36.65994 -113.22670 37007 ft 447 kts 67°
2026-05-07 22:00 36.68107 -113.15366 37041 ft 448 kts 67°
2026-05-07 22:01 36.70218 -113.08078 37075 ft 448 kts 67°
2026-05-07 22:01 36.72318 -113.00763 37077 ft 448 kts 67°
2026-05-07 22:02 36.74403 -112.93496 37085 ft 448 kts 67°
2026-05-07 22:02 36.76501 -112.86175 37089 ft 448 kts 67°
2026-05-07 22:03 36.78598 -112.78851 37073 ft 448 kts 67°
2026-05-07 22:03 36.80683 -112.71512 37060 ft 449 kts 68°
2026-05-07 22:04 36.82764 -112.64159 37037 ft 449 kts 68°
2026-05-07 22:04 36.84847 -112.56801 37017 ft 450 kts 68°
2026-05-07 22:05 36.86924 -112.49435 37021 ft 450 kts 68°
2026-05-07 22:05 36.89002 -112.42066 37017 ft 450 kts 68°
2026-05-07 22:06 36.91068 -112.34684 37020 ft 450 kts 68°
2026-05-07 22:06 36.93141 -112.27306 37018 ft 450 kts 68°
2026-05-07 22:07 36.95206 -112.19911 37012 ft 450 kts 68°
2026-05-07 22:07 36.97254 -112.12565 37011 ft 450 kts 68°
2026-05-07 22:08 36.99313 -112.05168 36998 ft 451 kts 68°
2026-05-07 22:08 37.01369 -111.97753 36998 ft 451 kts 68°
2026-05-07 22:09 37.03410 -111.90333 36986 ft 451 kts 68°
2026-05-07 22:09 37.05451 -111.82912 36979 ft 451 kts 68°
2026-05-07 22:10 37.07502 -111.75477 36972 ft 452 kts 68°
2026-05-07 22:10 37.09555 -111.68027 36969 ft 453 kts 68°
2026-05-07 22:11 37.11599 -111.60545 36973 ft 453 kts 68°
2026-05-07 22:11 37.13635 -111.53061 37037 ft 454 kts 68°
2026-05-07 22:12 37.15672 -111.45574 37033 ft 454 kts 68°
2026-05-07 22:12 37.17709 -111.38069 37027 ft 455 kts 68°
2026-05-07 22:13 37.19739 -111.30546 37012 ft 455 kts 68°
2026-05-07 22:13 37.21781 -111.23039 36996 ft 454 kts 65°
2026-05-07 22:14 37.24517 -111.15943 36988 ft 452 kts 60°
2026-05-07 22:14 37.27328 -111.08881 36994 ft 452 kts 60°
2026-05-07 22:15 37.30117 -111.01854 36990 ft 452 kts 60°
2026-05-07 22:15 37.32926 -110.94782 36988 ft 452 kts 60°
2026-05-07 22:16 37.35733 -110.87700 36984 ft 452 kts 60°
2026-05-07 22:16 37.38534 -110.80606 36994 ft 453 kts 60°
2026-05-07 22:17 37.41328 -110.73516 36985 ft 453 kts 60°
2026-05-07 22:17 37.44119 -110.66410 36986 ft 453 kts 60°
2026-05-07 22:18 37.48299 -110.55732 36990 ft 453 kts 60°
2026-05-07 22:19 37.51086 -110.48612 36991 ft 453 kts 60°
2026-05-07 22:19 37.53852 -110.41529 37004 ft 453 kts 60°
2026-05-07 22:20 37.56630 -110.34395 36999 ft 454 kts 60°
2026-05-07 22:20 37.59409 -110.27237 37000 ft 455 kts 60°
2026-05-07 22:21 37.62188 -110.20072 37014 ft 455 kts 60°
2026-05-07 22:21 37.64960 -110.12895 37025 ft 455 kts 60°
2026-05-07 22:22 37.67728 -110.05700 37044 ft 456 kts 60°
2026-05-07 22:22 37.70506 -109.98484 37039 ft 456 kts 60°
2026-05-07 22:23 37.73274 -109.91275 37049 ft 456 kts 60°
2026-05-07 22:23 37.76019 -109.84102 37049 ft 457 kts 60°
2026-05-07 22:24 37.78779 -109.76874 37062 ft 457 kts 60°
2026-05-07 22:24 37.81539 -109.69634 37063 ft 457 kts 60°
2026-05-07 22:25 37.84297 -109.62376 37084 ft 457 kts 60°
2026-05-07 22:25 37.87052 -109.55117 37087 ft 458 kts 60°
2026-05-07 22:26 37.89806 -109.47840 37082 ft 458 kts 60°
2026-05-07 22:26 37.92553 -109.40561 37088 ft 458 kts 60°
2026-05-07 22:27 37.95282 -109.33314 37065 ft 458 kts 60°
2026-05-07 22:27 37.98027 -109.26020 37069 ft 459 kts 60°
2026-05-07 22:28 38.00769 -109.18697 37068 ft 460 kts 60°
2026-05-07 22:28 38.03508 -109.11363 37086 ft 460 kts 60°
2026-05-07 22:29 38.06257 -109.03995 37073 ft 461 kts 60°
2026-05-07 22:29 38.08996 -108.96631 37063 ft 462 kts 60°
2026-05-07 22:30 38.11768 -108.89273 37062 ft 462 kts 59°
2026-05-07 22:30 38.14630 -108.82033 37059 ft 461 kts 59°
2026-05-07 22:31 38.17543 -108.74756 37073 ft 462 kts 59°
2026-05-07 22:31 38.20425 -108.67439 37076 ft 463 kts 59°
2026-05-07 22:32 38.23285 -108.60098 37071 ft 463 kts 59°
2026-05-07 22:32 38.26140 -108.52750 37076 ft 463 kts 59°
2026-05-07 22:33 38.28991 -108.45406 37069 ft 463 kts 59°
2026-05-07 22:33 38.31855 -108.38046 37074 ft 464 kts 59°
2026-05-07 22:34 38.34718 -108.30667 37076 ft 465 kts 59°
2026-05-07 22:34 38.37555 -108.23316 37082 ft 466 kts 59°
2026-05-07 22:35 38.40405 -108.15892 37115 ft 466 kts 59°
2026-05-07 22:35 38.43256 -108.08458 37134 ft 467 kts 59°
2026-05-07 22:36 38.46113 -108.01022 37160 ft 467 kts 59°
2026-05-07 22:36 38.48954 -107.93564 37167 ft 467 kts 59°
2026-05-07 22:37 38.51774 -107.86089 37167 ft 467 kts 59°
2026-05-07 22:37 38.54109 -107.79868 37053 ft 468 kts 59°
2026-05-07 22:38 38.57381 -107.71155 37087 ft 468 kts 59°
2026-05-07 22:38 38.59736 -107.64867 37061 ft 468 kts 59°
2026-05-07 22:39 38.62544 -107.57343 37080 ft 469 kts 59°
2026-05-07 22:39 38.65336 -107.49867 37080 ft 469 kts 59°
2026-05-07 22:40 38.68173 -107.42349 37094 ft 469 kts 59°
2026-05-07 22:40 38.71033 -107.34844 37105 ft 469 kts 59°
2026-05-07 22:41 38.73877 -107.27321 37084 ft 466 kts 58°
2026-05-07 22:41 38.75270 -107.23611 36829 ft 458 kts 58°
2026-05-07 22:41 38.76642 -107.19958 36571 ft 454 kts 58°
2026-05-07 22:41 38.78011 -107.16313 36322 ft 453 kts 58°
2026-05-07 22:42 38.79374 -107.12681 36066 ft 453 kts 58°
2026-05-07 22:42 38.80742 -107.09034 35820 ft 454 kts 58°
2026-05-07 22:42 38.82113 -107.05381 35570 ft 454 kts 58°
2026-05-07 22:42 38.83464 -107.01774 35358 ft 456 kts 58°
2026-05-07 22:43 38.84838 -106.98103 35118 ft 457 kts 58°
2026-05-07 22:43 38.86216 -106.94421 34883 ft 458 kts 58°
2026-05-07 22:43 38.87588 -106.90739 34653 ft 458 kts 58°
2026-05-07 22:43 38.88959 -106.87048 34411 ft 459 kts 58°
2026-05-07 22:44 38.90335 -106.83340 34179 ft 459 kts 58°
2026-05-07 22:44 38.91706 -106.79642 33923 ft 458 kts 58°
2026-05-07 22:44 38.93067 -106.75968 33666 ft 456 kts 58°
2026-05-07 22:44 38.94383 -106.72268 33394 ft 458 kts 64°
2026-05-07 22:45 38.95386 -106.68370 33155 ft 460 kts 67°
2026-05-07 22:45 38.96365 -106.64473 32888 ft 455 kts 62°
2026-05-07 22:45 38.97876 -106.60985 32633 ft 442 kts 49°
2026-05-07 22:45 38.99683 -106.57792 32401 ft 440 kts 47°
2026-05-07 22:46 39.01509 -106.54643 32163 ft 438 kts 47°
2026-05-07 22:46 39.03336 -106.51508 31922 ft 437 kts 47°
2026-05-07 22:46 39.05161 -106.48386 31691 ft 435 kts 47°
2026-05-07 22:46 39.06956 -106.45327 31464 ft 434 kts 47°
2026-05-07 22:47 39.08773 -106.42230 31251 ft 433 kts 47°
2026-05-07 22:47 39.10530 -106.39077 31018 ft 436 kts 54°
2026-05-07 22:47 39.11674 -106.35431 30788 ft 446 kts 71°
2026-05-07 22:47 39.12419 -106.31547 30580 ft 445 kts 68°
2026-05-07 22:48 39.13440 -106.27808 30344 ft 441 kts 63°
2026-05-07 22:48 39.14657 -106.24202 30067 ft 437 kts 60°
2026-05-07 22:48 39.15939 -106.20669 29575 ft 433 kts 59°
2026-05-07 22:48 39.17198 -106.17163 29047 ft 430 kts 60°
2026-05-07 22:49 39.18398 -106.13644 28524 ft 428 kts 62°
2026-05-07 22:49 39.19533 -106.10104 27995 ft 426 kts 63°
2026-05-07 22:49 39.20618 -106.06565 27488 ft 424 kts 64°
2026-05-07 22:49 39.21678 -106.03022 26981 ft 422 kts 64°
2026-05-07 22:50 39.22728 -105.99494 26504 ft 421 kts 64°
2026-05-07 22:50 39.23778 -105.95980 26009 ft 420 kts 64°
2026-05-07 22:50 39.24835 -105.92488 25494 ft 418 kts 64°
2026-05-07 22:50 39.25901 -105.88993 25043 ft 417 kts 64°
2026-05-07 22:51 39.26964 -105.85518 24591 ft 416 kts 64°
2026-05-07 22:51 39.28026 -105.82044 24141 ft 416 kts 64°
2026-05-07 22:51 39.29088 -105.78574 23671 ft 416 kts 64°
2026-05-07 22:51 39.30147 -105.75096 23133 ft 416 kts 65°
2026-05-07 22:52 39.31198 -105.71624 22651 ft 413 kts 65°
2026-05-07 22:52 39.32238 -105.68175 22176 ft 412 kts 65°
2026-05-07 22:52 39.33311 -105.64812 21677 ft 409 kts 63°
2026-05-07 22:52 39.34501 -105.61427 21190 ft 406 kts 61°
2026-05-07 22:53 39.35722 -105.58147 20675 ft 405 kts 60°
2026-05-07 22:53 39.36937 -105.54950 20242 ft 400 kts 60°
2026-05-07 22:53 39.38162 -105.51721 19800 ft 396 kts 60°
2026-05-07 22:53 39.39343 -105.48554 19118 ft 386 kts 61°
2026-05-07 22:54 39.40463 -105.45495 18835 ft 365 kts 61°
2026-05-07 22:54 39.41337 -105.42488 18473 ft 353 kts 73°
2026-05-07 22:54 39.41687 -105.39371 18080 ft 345 kts 86°
2026-05-07 22:54 39.41694 -105.36240 17814 ft 349 kts 87°
2026-05-07 22:55 39.41705 -105.33107 17481 ft 348 kts 87°
2026-05-07 22:55 39.41726 -105.29990 17204 ft 344 kts 87°
2026-05-07 22:55 39.41750 -105.26907 16784 ft 344 kts 87°
2026-05-07 22:55 39.41776 -105.23820 16337 ft 344 kts 88°
2026-05-07 22:56 39.41798 -105.20723 15906 ft 344 kts 88°
2026-05-07 22:56 39.41817 -105.17633 15481 ft 343 kts 88°
2026-05-07 22:56 39.41834 -105.14549 15078 ft 341 kts 88°
2026-05-07 22:56 39.41850 -105.11483 14652 ft 337 kts 88°
2026-05-07 22:57 39.41863 -105.08510 14107 ft 331 kts 88°
2026-05-07 22:57 39.41872 -105.05566 13619 ft 323 kts 89°
2026-05-07 22:57 39.41876 -105.02714 13327 ft 311 kts 89°
2026-05-07 22:57 39.41878 -104.99968 13262 ft 301 kts 87°
2026-05-07 22:58 39.41883 -104.97300 13139 ft 292 kts 88°
2026-05-07 22:58 39.41893 -104.94713 13016 ft 284 kts 86°
2026-05-07 22:58 39.42084 -104.92198 12764 ft 280 kts 81°
2026-05-07 22:58 39.42309 -104.89704 12480 ft 279 kts 81°
2026-05-07 22:59 39.42533 -104.87220 12209 ft 277 kts 80°
2026-05-07 22:59 39.42754 -104.84745 11934 ft 276 kts 81°
2026-05-07 22:59 39.42971 -104.82284 11659 ft 275 kts 80°
2026-05-07 22:59 39.43208 -104.79834 11373 ft 273 kts 75°
2026-05-07 23:00 39.43879 -104.77591 11089 ft 264 kts 52°
2026-05-07 23:00 39.45055 -104.75853 10867 ft 251 kts 31°
2026-05-07 23:00 39.46520 -104.74765 10724 ft 236 kts 14°
2026-05-07 23:00 39.48040 -104.74043 10587 ft 228 kts 14°
2026-05-07 23:01 39.49476 -104.73349 10432 ft 219 kts 13°
2026-05-07 23:01 39.50896 -104.72664 10260 ft 210 kts 14°
2026-05-07 23:01 39.52221 -104.72022 10118 ft 196 kts 13°
2026-05-07 23:01 39.53495 -104.71408 10011 ft 196 kts 12°
2026-05-07 23:02 39.54779 -104.70794 9860 ft 197 kts 13°
2026-05-07 23:02 39.56046 -104.70183 9715 ft 196 kts 13°
2026-05-07 23:02 39.57326 -104.69566 9574 ft 197 kts 13°
2026-05-07 23:02 39.58611 -104.68946 9439 ft 197 kts 13°
2026-05-07 23:03 39.59890 -104.68330 9286 ft 196 kts 13°
2026-05-07 23:03 39.61169 -104.67715 9194 ft 196 kts 13°
2026-05-07 23:03 39.62446 -104.67102 9111 ft 196 kts 13°
2026-05-07 23:03 39.63725 -104.66501 9024 ft 193 kts
2026-05-07 23:04 39.65013 -104.66293 8869 ft 177 kts 356°
2026-05-07 23:04 39.66184 -104.66255 8647 ft 160 kts 352°
2026-05-07 23:04 39.67259 -104.66239 8452 ft 152 kts 353°
2026-05-07 23:04 39.68303 -104.66227 8258 ft 149 kts 353°
2026-05-07 23:05 39.69338 -104.66215 8069 ft 148 kts 353°
2026-05-07 23:05 39.70371 -104.66204 7877 ft 149 kts 353°
2026-05-07 23:05 39.71403 -104.66191 7686 ft 148 kts 353°
2026-05-07 23:05 39.72440 -104.66179 7500 ft 149 kts 353°
2026-05-07 23:06 39.73464 -104.66166 7309 ft 146 kts 353°
2026-05-07 23:06 39.74482 -104.66155 7115 ft 149 kts 355°
2026-05-07 23:06 39.75526 -104.66143 6935 ft 149 kts 355°
2026-05-07 23:06 39.76536 -104.66130 6746 ft 146 kts 353°
2026-05-07 23:07 39.77558 -104.66117 6563 ft 147 kts 352°
2026-05-07 23:07 39.78576 -104.66098 6362 ft 146 kts 352°
2026-05-07 23:07 39.79591 -104.66090 6126 ft 146 kts 353°
2026-05-07 23:07 39.80600 -104.66075 5944 ft 145 kts 351°
2026-05-07 23:08 39.81611 -104.66074 5687 ft 147 kts 353°
2026-05-07 23:08 39.82630 -104.66058 5452 ft 146 kts 353°
2026-05-07 23:08 39.83593 -104.66056 5360 ft 120 kts 360°
2026-05-07 23:08 39.84169 -104.66040 5373 ft 61 kts
2026-05-07 23:09 39.84453 -104.66037 5381 ft 32 kts
2026-05-07 23:09 39.84659 -104.66045 5377 ft 23 kts 350°
2026-05-07 23:09 39.84808 -104.66091 5378 ft 21 kts 340°
2026-05-07 23:09 39.84917 -104.66164 5376 ft 0 kts 330°
2026-05-07 23:10 39.84920 -104.66166 5376 ft 0 kts 330°
2026-05-07 23:10 39.84922 -104.66168 5376 ft 0 kts 330°
2026-05-07 23:10 39.84926 -104.66171 5376 ft 0 kts 329°
2026-05-07 23:10 39.84932 -104.66175 5379 ft 2 kts 329°
2026-05-07 23:11 39.84950 -104.66189 5377 ft 4 kts 330°
2026-05-07 23:11 39.84974 -104.66204 5376 ft 4 kts 338°
2026-05-07 23:11 39.85001 -104.66218 5379 ft 4 kts 337°
2026-05-07 23:11 39.85024 -104.66230 5377 ft 3 kts 340°
2026-05-07 23:12 39.85045 -104.66238 5379 ft 3 kts 346°
2026-05-07 23:12 39.85074 -104.66243 5382 ft 6 kts 357°
2026-05-07 23:12 39.85132 -104.66243 5382 ft 11 kts
2026-05-07 23:12 39.85199 -104.66277 5383 ft 11 kts 302°
2026-05-07 23:13 39.85206 -104.66371 5384 ft 10 kts 271°
2026-05-07 23:13 39.85207 -104.66456 5387 ft 9 kts 270°
2026-05-07 23:13 39.85212 -104.66531 5388 ft 8 kts 286°
2026-05-07 23:13 39.85252 -104.66580 5388 ft 9 kts 339°
2026-05-07 23:14 39.85274 -104.66653 5387 ft 10 kts 270°
2026-05-07 23:14 39.85274 -104.66664 5387 ft 2 kts 270°
2026-05-07 23:14 39.85284 -104.66681 5387 ft 3 kts 328°
2026-05-07 23:14 39.85304 -104.66672 5387 ft 4 kts 24°
2026-05-07 23:15 39.85325 -104.66627 5387 ft 8 kts 82°
2026-05-07 23:15 39.85371 -104.66587 5386 ft 10 kts
2026-05-07 23:15 39.85449 -104.66587 5386 ft 12 kts 360°
2026-05-07 23:15 39.85522 -104.66609 5386 ft 8 kts 285°
2026-05-07 23:16 39.85529 -104.66679 5385 ft 9 kts 287°
2026-05-07 23:16 39.85542 -104.66775 5384 ft 12 kts 269°
2026-05-07 23:16 39.85542 -104.66893 5383 ft 14 kts 270°
2026-05-07 23:16 39.85536 -104.67024 5383 ft 15 kts 251°
2026-05-07 23:17 39.85471 -104.67064 5384 ft 6 kts 187°
2026-05-07 23:17 39.85445 -104.67069 5385 ft 0 kts 187°
2026-05-07 23:17 39.85444 -104.67069 5385 ft 0 kts 187°